Location: Aghk�ilisa
(40.0189°N, 45.0097°E)
Time: 07:51:58
(UTC+00:00)

SJ 16-02 - Pass Details

Date: 21 October 2019
Orbit: 607 x 616 km, 75.0° (Epoch: 17 November)

Event Time Altitude Azimuth Distance (km) Brightness Sun altitude
Rises 16:45:28 0° 342° (NNW) 2,875 5.2 -29.9°
Reaches altitude 10° 16:47:43 10° 343° (NNW) 1,965 4.2 -30.3°
Enters shadow 16:48:44 17° 343° (NNW) 1,561 3.7 -30.5°
